�N����,����,����,����,����,�C��,���x,�~����,�S�V����,�ő�u�ԕ���,,,
,,,,,,,,,����,����,����,�N��
yyyy/mm/dd,hh:mm:ss,(16),16����,m/s,��,%,mm,KW/�u,(16),16����,m/s,Time
2013/12/1,1:00:00,3,���k��,0.8,0.5,74.7,0,0,16,�k,7.4,29
2013/12/1,2:00:00,10,�쐼,3.4,3,63.7,0,0,11,���쐼,5.8,58
2013/12/1,3:00:00,1,�k�k��,2.3,-1.7,87,0,0,11,���쐼,7.4,5
2013/12/1,4:00:00,12,��,2.3,-2.8,86.4,0,0,12,��,3.1,20
2013/12/1,5:00:00,15,�k�k��,2,-4.7,92.3,0,0,12,��,2.7,7
2013/12/1,6:00:00,12,��,1.9,-5.6,92.5,0,0,12,��,2.3,57
2013/12/1,7:00:00,11,���쐼,2.1,-5.2,89.1,0,0.01,12,��,3.1,33
2013/12/1,8:00:00,12,��,1.3,-2.3,81.7,0,0.13,11,���쐼,2.8,5
2013/12/1,9:00:00,15,�k�k��,0.5,2,55.4,0,0.29,15,�k�k��,2.5,50
2013/12/1,10:00:00,12,��,1.6,4.6,33.4,0,0.42,12,��,4.6,54
2013/12/1,11:00:00,12,��,3.4,5.1,34.5,0,0.49,12,��,6.6,57
2013/12/1,12:00:00,11,���쐼,3.5,5.5,35.7,0,0.51,11,���쐼,7.4,46
2013/12/1,13:00:00,12,��,4.3,5.6,37.5,0,0.46,12,��,8.2,46
2013/12/1,14:00:00,12,��,5,5.1,37.9,0,0.36,12,��,9.5,24
2013/12/1,15:00:00,11,���쐼,5.7,3.9,44.9,0,0.21,11,���쐼,10.4,37
2013/12/1,16:00:00,11,���쐼,4.3,2.7,48.6,0,0.04,11,���쐼,9.1,30
2013/12/1,17:00:00,16,�k,1.1,1.5,51,0,0,11,���쐼,6.3,23
2013/12/1,18:00:00,14,�k��,1.1,-2.3,68.7,0,0,11,���쐼,3.4,50
2013/12/1,19:00:00,12,��,1.8,-3.7,76.1,0,0,11,���쐼,4.2,43
2013/12/1,20:00:00,12,��,0.7,-3.7,83.1,0,0,8,��,23.7,42
2013/12/1,21:00:00,11,���쐼,1.7,-2,71.7,0,0,10,�쐼,3.1,50
2013/12/1,22:00:00,10,�쐼,2.9,-0.1,62,0,0,11,���쐼,5.9,18
2013/12/1,23:00:00,12,��,1.7,-6.5,89.7,0,0,12,��,7,5
2013/12/1,0:00:00,11,���쐼,1.3,-6.2,85.7,0,0,12,��,4.2,8
2013/12/2,1:00:00,16,�É�,0.2,-6.9,90.6,0,0,12,��,3.6,38
2013/12/2,2:00:00,12,��,1,-6.3,86.6,0,0,12,��,4.1,22
2013/12/2,3:00:00,11,���쐼,2.6,-4.9,88.5,0,0,11,���쐼,3.7,57
2013/12/2,4:00:00,12,��,1.9,-5.9,88.4,0,0,11,���쐼,3.5,0
2013/12/2,5:00:00,12,��,2.5,-6.3,90.3,0,0,12,��,3.5,54
2013/12/2,6:00:00,12,��,2.4,-6,93.3,0,0,12,��,4.1,38
2013/12/2,7:00:00,12,��,2.5,-6.3,93.7,0,0.01,12,��,3.9,12
2013/12/2,8:00:00,12,��,1.3,-1.8,90.4,0,0.09,12,��,4.9,14
2013/12/2,9:00:00,11,���쐼,2.5,3.9,76.2,0,0.27,10,�쐼,3.2,56
2013/12/2,10:00:00,12,��,2.9,6.2,48.9,0,0.41,11,���쐼,4.6,59
2013/12/2,11:00:00,15,�k�k��,2.1,7.1,48,0,0.48,10,�쐼,5.5,7
2013/12/2,12:00:00,14,�k��,2.5,7.2,39.8,0,0.47,14,�k��,6.2,16
2013/12/2,13:00:00,14,�k��,2.3,6.8,39.4,0,0.26,14,�k��,5.8,49
2013/12/2,14:00:00,14,�k��,2.7,6.9,41.4,0,0.35,14,�k��,6.2,17
2013/12/2,15:00:00,15,�k�k��,2.2,5.6,47.4,0,0.22,13,���k��,5.7,1
2013/12/2,16:00:00,12,��,1,1.7,63.6,0,0.04,16,�k,3.3,23
2013/12/2,17:00:00,14,�k��,1.3,0.6,70.6,0,0,1,�k�k��,2.9,32
2013/12/2,18:00:00,15,�k�k��,1.1,-0.1,82.3,0,0,16,�k,2.7,1
2013/12/2,19:00:00,13,���k��,1.5,-3.6,90.8,0,0,10,�쐼,2.2,54
2013/12/2,20:00:00,13,���k��,0.3,-3.9,90.6,0,0,10,�쐼,7.4,18
2013/12/2,21:00:00,12,��,1.6,-1.6,79.4,0,0,13,���k��,2.7,57
2013/12/2,22:00:00,11,���쐼,2,-2.1,82.2,0,0,13,���k��,4.5,0
2013/12/2,23:00:00,11,���쐼,2.3,-3.3,84.8,0,0,12,��,6.1,16
2013/12/2,0:00:00,11,���쐼,2.2,-4.6,86.3,0,0,12,��,4.5,23
2013/12/3,1:00:00,14,�É�,0.2,-4.7,87.1,0,0,16,�k,7.4,52
2013/12/3,2:00:00,14,�k��,0.4,-4.5,94.9,0,0,14,�k��,2.7,9
2013/12/3,3:00:00,13,���k��,1.2,-6,90.1,0,0,14,�k��,2.1,50
2013/12/3,4:00:00,14,�k��,1.8,-4.8,92.2,0,0,14,�k��,2.6,53
2013/12/3,5:00:00,13,���k��,2,-6.2,95.9,0,0,13,���k��,3.2,56
2013/12/3,6:00:00,12,��,2.5,-6.8,95.3,0,0,12,��,4.4,55
2013/12/3,7:00:00,12,��,2.4,-5.5,94.2,0,0.01,12,��,3.6,58
2013/12/3,8:00:00,12,��,2.1,-1.3,84.4,0,0.13,12,��,3.7,31
2013/12/3,9:00:00,13,���k��,2.2,1.3,69.9,0,0.28,14,�k��,4.2,33
2013/12/3,10:00:00,16,�k,5.1,3.7,49.7,0,0.41,1,�k�k��,8.5,52
2013/12/3,11:00:00,14,�k��,5.3,4.4,42.5,0,0.48,14,�k��,9.1,51
2013/12/3,12:00:00,14,�k��,3,5,41.7,0,0.5,15,�k�k��,8.1,3
2013/12/3,13:00:00,14,�k��,2.1,5.4,41.5,0,0.46,14,�k��,6.2,10
2013/12/3,14:00:00,3,���k��,1.5,5.7,41.4,0,0.36,15,�k�k��,4.7,4
2013/12/3,15:00:00,3,���k��,2.1,4.3,45,0,0.21,3,���k��,3.5,16
2013/12/3,16:00:00,6,�쓌,1.2,1.1,60.7,0,0.05,4,��,3.3,10
2013/12/3,17:00:00,12,��,0.7,-3.1,81.4,0,0,7,��쓌,1.5,12
2013/12/3,18:00:00,12,��,1.8,-3.9,86.8,0,0,12,��,2.3,52
2013/12/3,19:00:00,12,��,2.4,-3.9,83.2,0,0,13,���k��,3.2,56
2013/12/3,20:00:00,12,��,1.7,-4.3,85.9,0,0,13,���k��,2.9,46
2013/12/3,21:00:00,12,��,1.6,-4.6,87.6,0,0,12,��,2.7,44
2013/12/3,22:00:00,13,���k��,2.9,-2.8,82.8,0,0,13,���k��,4.5,44
2013/12/3,23:00:00,12,��,1.4,-4.9,90.2,0,0,13,���k��,4.1,0
2013/12/3,0:00:00,12,��,1.5,-5.8,93.1,0,0,13,���k��,3.6,25
2013/12/4,1:00:00,12,��,1.9,-3.1,84.6,0,0,11,���쐼,4.3,26
2013/12/4,2:00:00,12,��,2.5,-3.7,86,0,0,12,��,3.3,57
2013/12/4,3:00:00,12,��,1.7,-3.4,84.9,0,0,14,�k��,3.8,36
2013/12/4,4:00:00,13,���k��,2.7,-2.6,80,0,0,14,�k��,4.3,52
2013/12/4,5:00:00,12,��,2.6,-2.5,79.7,0,0,14,�k��,4.1,14
2013/12/4,6:00:00,12,��,1.5,-3.1,83.7,0,0,12,��,3.6,0
2013/12/4,7:00:00,13,���k��,2.2,-2.7,79.5,0,0.01,11,���쐼,3.3,53
2013/12/4,8:00:00,13,���k��,1.5,-1.4,77.9,0,0.06,9,��쐼,4.2,21
2013/12/4,9:00:00,12,��,2.6,-0.7,77.1,0,0.13,14,�k��,4.5,39
2013/12/4,10:00:00,13,���k��,2.6,2,68,0,0.24,8,��,4.1,3
2013/12/4,11:00:00,13,���k��,1.2,3.6,67.3,0,0.27,14,�k��,3.7,16
2013/12/4,12:00:00,4,��,0.8,5.5,61.7,0,0.45,4,��,2,47
2013/12/4,13:00:00,5,���쓌,2.3,4.8,66.4,0,0.4,5,���쓌,3.9,38
2013/12/4,14:00:00,6,�쓌,2.3,4.4,70.4,0,0.33,6,�쓌,4,58
2013/12/4,15:00:00,8,��,1.7,4,75.3,0,0.19,6,�쓌,3.6,1
2013/12/4,16:00:00,15,�k�k��,0.4,0.3,89.4,0,0.04,9,��쐼,1.6,0
2013/12/4,17:00:00,12,��,1.3,-2.6,95.2,0,0,13,���k��,2.2,46
2013/12/4,18:00:00,12,��,2.2,-1.8,92.6,0,0,14,�k��,2.8,47
2013/12/4,19:00:00,12,��,1.9,-2.1,91.6,0,0,11,���쐼,2.7,54
2013/12/4,20:00:00,12,��,0.5,-1.7,86,0,0,9,��쐼,3.5,3
2013/12/4,21:00:00,12,��,2,-1.6,90.3,0,0,12,��,3.1,59
2013/12/4,22:00:00,12,��,1.8,-2.5,92.9,0,0,1,�k�k��,2.9,43
2013/12/4,23:00:00,13,���k��,1.5,-2.3,93.1,0,0,11,���쐼,2.9,47
2013/12/4,0:00:00,12,��,1.6,-2.2,92.4,0,0,12,��,2.5,44
2013/12/5,1:00:00,12,��,1.5,-2,93.1,0,0,12,��,2.5,53
2013/12/5,2:00:00,13,���k��,1.3,-2,92,0,0,12,��,2.8,37
2013/12/5,3:00:00,12,��,1.6,-2.7,94.3,0,0,12,��,3.2,41
2013/12/5,4:00:00,12,��,1.7,-1.9,92.7,0,0,11,���쐼,3.9,23
2013/12/5,5:00:00,12,��,2.4,-2.3,95.9,0,0,12,��,3.6,51
2013/12/5,6:00:00,12,��,2.4,-2.7,95.8,0,0,11,���쐼,3.7,38
2013/12/5,7:00:00,12,��,1,-2.8,97.8,0,0.01,9,��쐼,2.9,42
2013/12/5,8:00:00,12,��,2.5,-0.4,90.6,0,0.12,12,��,3.8,53
2013/12/5,9:00:00,8,��,1.8,5.5,73.5,0,0.21,12,��,3.3,7
2013/12/5,10:00:00,9,��쐼,4.3,9.3,60.4,0,0.42,9,��쐼,8.5,56
2013/12/5,11:00:00,9,��쐼,4.6,8.9,71.2,0,0.35,8,��,8.1,45
2013/12/5,12:00:00,7,��쓌,4.3,10,73.6,0,0.42,9,��쐼,8.1,34
2013/12/5,13:00:00,8,��,4.4,10,63,0,0.51,7,��쓌,8.2,6
2013/12/5,14:00:00,8,��,2.5,9.2,64.2,0,0.26,7,��쓌,6.6,12
2013/12/5,15:00:00,15,�k�k��,0.8,8.1,67.4,0,0.07,8,��,4.6,11
2013/12/5,16:00:00,13,���k��,2.4,4.5,79,0,0.01,14,�k��,4.4,39
2013/12/5,17:00:00,12,��,1.4,2.4,85.3,0,0,10,�쐼,4.4,15
2013/12/5,18:00:00,12,��,2.3,1.4,88.4,0,0,12,��,4.6,53
2013/12/5,19:00:00,12,��,2.5,0.1,95.4,0,0,11,���쐼,4,7
2013/12/5,20:00:00,12,��,2.4,-0.8,95.6,0,0,12,��,4.6,33
2013/12/5,21:00:00,11,���쐼,2.5,-0.5,94.9,0,0,12,��,5.7,46
2013/12/5,22:00:00,12,��,1.6,-0.3,94.1,0,0,12,��,4.9,2
2013/12/5,23:00:00,12,��,2.2,-1.7,94.9,0,0,12,��,3.7,59
2013/12/5,0:00:00,14,�k��,0.8,-3,97.2,0,0,12,��,3,4
2013/12/6,1:00:00,12,��,2.1,-1.1,94.8,0,0,12,��,3,56
2013/12/6,2:00:00,12,��,1.8,0.7,91,0,0,14,�k��,4.9,31
2013/12/6,3:00:00,12,��,1.7,0.2,94.6,0,0,9,��쐼,3.8,14
2013/12/6,4:00:00,13,���k��,1.3,-1.1,96.3,0,0,11,���쐼,2.9,42
2013/12/6,5:00:00,12,��,1.4,-0.4,97.9,0,0,12,��,2.3,59
2013/12/6,6:00:00,12,��,0.6,0.2,96.4,0,0,12,��,2.5,0
2013/12/6,7:00:00,11,���쐼,1.9,-0.4,97.2,0,0.01,12,��,2.5,58
2013/12/6,8:00:00,12,��,0.6,0.9,96.9,0,0.03,12,��,2.3,0
2013/12/6,9:00:00,12,��,1.1,2,92.8,0,0.07,12,��,2.3,33
2013/12/6,10:00:00,12,��,1.2,3.6,84.3,0,0.13,12,��,1.9,47
2013/12/6,11:00:00,12,��,0.5,4.5,71.4,0,0.2,12,��,1.4,35
2013/12/6,12:00:00,5,���쓌,1.1,6.5,65.6,0,0.33,14,�k��,3.7,41
2013/12/6,13:00:00,6,�쓌,1.4,5.6,66.1,0,0.36,7,��쓌,2.6,49
2013/12/6,14:00:00,8,��,1.2,5,67.3,0,0.16,5,���쓌,3.1,9
2013/12/6,15:00:00,12,��,0.3,4.8,74.8,0,0.11,10,�쐼,1.9,21
2013/12/6,16:00:00,1,�k�k��,0.3,1.4,76.8,0,0.05,1,�k�k��,1.6,48
2013/12/6,17:00:00,12,��,1.4,-1.8,90.2,0,0,13,���k��,1.9,0
2013/12/6,18:00:00,12,��,2.1,-1.4,92.3,0,0,11,���쐼,2.5,46
2013/12/6,19:00:00,12,��,1.8,-2.2,91.1,0,0,12,��,2.5,0
2013/12/6,20:00:00,12,��,3,-3.1,96.3,0,0,11,���쐼,3.6,56
2013/12/6,21:00:00,12,��,1.9,-2.8,96.1,0,0,12,��,2.9,2
2013/12/6,22:00:00,12,��,2.7,-3.1,95.8,0,0,12,��,3.7,59
2013/12/6,23:00:00,12,��,2.3,-4,97.1,0,0,9,��쐼,4,12
2013/12/6,0:00:00,11,���쐼,2.7,-4,97.8,0,0,13,���k��,4.7,8
2013/12/7,1:00:00,11,���쐼,0.8,-4.4,98,0,0,13,���k��,4.8,38
2013/12/7,2:00:00,11,���쐼,2.3,-5.5,99,0,0,12,��,5.3,57
2013/12/7,3:00:00,13,���k��,2.5,-4,88.7,0,0,14,�k��,4.6,46
2013/12/7,4:00:00,11,���쐼,1.5,-6.9,96.8,0,0,13,���k��,2.4,4
2013/12/7,5:00:00,12,��,1.6,-6.9,95.3,0,0,11,���쐼,3.6,11
2013/12/7,6:00:00,11,���쐼,2.1,-8.1,93.2,0,0,10,�쐼,5.4,17
2013/12/7,7:00:00,11,���쐼,2.5,-7,90.7,0,0.01,11,���쐼,3.8,45
2013/12/7,8:00:00,13,���k��,1.7,-3.7,88.3,0,0.12,13,���k��,3.3,20
2013/12/7,9:00:00,13,���k��,0.5,1.6,61.2,0,0.28,8,��,2.6,8
2013/12/7,10:00:00,11,���쐼,2.6,3.7,41.5,0,0.4,12,��,4.6,58
2013/12/7,11:00:00,11,���쐼,6.3,4,36.1,0,0.47,11,���쐼,9.6,53
2013/12/7,12:00:00,11,���쐼,6.3,4.1,33.7,0,0.5,11,���쐼,10.2,48
2013/12/7,13:00:00,11,���쐼,5.4,4.2,33.4,0,0.45,12,��,10.8,0
2013/12/7,14:00:00,11,���쐼,4.7,4,38,0,0.35,11,���쐼,8.5,55
2013/12/7,15:00:00,11,���쐼,4,3.4,34.8,0,0.21,11,���쐼,7.7,0
2013/12/7,16:00:00,14,�k��,1.3,1.1,44,0,0.05,11,���쐼,6.1,0
2013/12/7,17:00:00,1,�k�k��,0.5,-3.8,64.7,0,0,15,�k�k��,3.6,8
2013/12/7,18:00:00,12,�É�,0.1,-4,73.9,0,0,11,���쐼,3.3,49
2013/12/7,19:00:00,13,���k��,0.7,-4.9,81.8,0,0,10,�쐼,3.1,2
2013/12/7,20:00:00,12,��,2.3,-6.3,83.6,0,0,7,��쓌,3.1,16
2013/12/7,21:00:00,12,��,1.7,-7.1,85.9,0,0,12,��,3.2,50
2013/12/7,22:00:00,12,��,1.5,-6.6,88.3,0,0,11,���쐼,2.9,3
2013/12/7,23:00:00,12,��,1.8,-6.5,87.8,0,0,12,��,4.3,30
2013/12/7,0:00:00,12,��,1.8,-6.8,86.9,0,0,12,��,3.4,23
2013/12/8,1:00:00,13,���k��,0.6,-8.1,89.5,0,0,3,���k��,24.1,46
2013/12/8,2:00:00,12,��,1.5,-8.4,93.7,0,0,15,�k�k��,23.6,39
2013/12/8,3:00:00,11,���쐼,2,-9.8,91.9,0,0,11,���쐼,2.7,53
2013/12/8,4:00:00,12,��,2.8,-8.7,90.8,0,0,13,���k��,4.2,59
2013/12/8,5:00:00,13,���k��,2.8,-4.2,81.1,0,0,9,��쐼,4.1,6
2013/12/8,6:00:00,12,��,2.6,-5.2,87.4,0,0,9,��쐼,3.9,8
2013/12/8,7:00:00,11,���쐼,3,-6.2,92.4,0,0.01,11,���쐼,4.4,58
2013/12/8,8:00:00,11,���쐼,1.5,-3.7,81.2,0,0.1,10,�쐼,4.3,2
2013/12/8,9:00:00,11,���쐼,2.8,0.9,70.3,0,0.25,11,���쐼,3.8,57
2013/12/8,10:00:00,12,��,2.2,3,57.3,0,0.39,12,��,4.2,0
2013/12/8,11:00:00,11,���쐼,1.1,4.2,51.1,0,0.47,14,�k��,3.1,10
2013/12/8,12:00:00,10,�쐼,1.7,5.3,44.6,0,0.49,10,�쐼,3.8,27
2013/12/8,13:00:00,7,��쓌,3,4.8,48.1,0,0.45,8,��,5,18
2013/12/8,14:00:00,7,��쓌,2.5,5.1,50.3,0,0.37,6,�쓌,5.2,42
2013/12/8,15:00:00,6,�쓌,1,3.5,59.7,0,0.13,8,��,4.1,18
2013/12/8,16:00:00,3,���k��,1.7,1.3,69.1,0,0.03,4,��,2.6,50
2013/12/8,17:00:00,12,��,2.2,1.6,71.5,0,0,13,���k��,3.6,38
2013/12/8,18:00:00,13,���k��,2.5,-0.2,76.6,0,0,14,�k��,3.9,19
2013/12/8,19:00:00,12,��,0.4,-3.2,82.2,0,0,11,���쐼,4.2,18
2013/12/8,20:00:00,12,��,2.1,-3.4,87.2,0,0,3,���k��,3,41
2013/12/8,21:00:00,11,���쐼,2.5,-4.9,94.4,0,0,12,��,2.8,57
2013/12/8,22:00:00,12,��,2.3,-4.5,90.5,0,0,4,��,3.5,49
2013/12/8,23:00:00,13,���k��,2.1,-3.8,88.6,0,0,12,��,3.9,41
2013/12/8,0:00:00,11,���쐼,1.9,-3.2,91.1,0,0,13,���k��,3.2,14
2013/12/9,1:00:00,13,���k��,0.5,-6.2,92.3,0,0,4,��,2.8,0
2013/12/9,2:00:00,12,��,1.5,-6,96.7,0,0,12,��,1.9,57
2013/12/9,3:00:00,12,��,2.2,-5.4,95.4,0,0,12,��,2.8,18
2013/12/9,4:00:00,12,��,1.1,-6.6,93.6,0,0,13,���k��,2.5,0
2013/12/9,5:00:00,12,��,1.7,-6.6,91.9,0,0,9,��쐼,3.8,40
2013/12/9,6:00:00,11,���쐼,2.8,-7.7,91.9,0,0,12,��,4.9,20
2013/12/9,7:00:00,11,���쐼,3.1,-8.4,91.8,0,0.01,12,��,4,39
2013/12/9,8:00:00,12,��,2.7,-5,87.9,0,0.11,11,���쐼,3.5,53
2013/12/9,9:00:00,12,��,1.4,-0.2,78,0,0.26,12,��,3.2,5
2013/12/9,10:00:00,10,�쐼,2.7,3.7,58.1,0,0.37,11,���쐼,3.9,42
2013/12/9,11:00:00,9,��쐼,2.1,4.9,38.5,0,0.4,9,��쐼,4.1,59
2013/12/9,12:00:00,6,�쓌,2.5,5.9,38.2,0,0.47,6,�쓌,4.6,53
2013/12/9,13:00:00,6,�쓌,2.6,6,39.4,0,0.42,5,���쓌,5.4,24
2013/12/9,14:00:00,5,���쓌,2.7,5.3,44,0,0.31,5,���쓌,4.8,8
2013/12/9,15:00:00,7,��쓌,2,4.3,47.1,0,0.13,5,���쓌,4.1,14
2013/12/9,16:00:00,6,�쓌,1.7,3,54.3,0,0.03,6,�쓌,3.2,1
2013/12/9,17:00:00,11,���쐼,1.1,-1.2,79.2,0,0,7,��쓌,2.3,20
2013/12/9,18:00:00,12,�É�,0,-0.3,74.4,0,0,11,���쐼,1.8,14
2013/12/9,19:00:00,11,���쐼,1.4,-0.8,81.7,0,0,12,��,2.7,58
2013/12/9,20:00:00,13,���k��,0.3,-0.9,85.2,0,0,14,�k��,3.7,48
2013/12/9,21:00:00,12,��,1.4,-0.8,84,0,0,10,�쐼,2.3,45
2013/12/9,22:00:00,12,��,1.8,-0.2,79.8,0,0,11,���쐼,3.2,34
2013/12/9,23:00:00,13,���k��,1.3,0.4,88.6,0,0,5,���쓌,3.8,10
2013/12/9,0:00:00,13,���k��,1.7,0.3,91.9,0.5,0,14,�k��,25.5,11
2013/12/10,1:00:00,13,���k��,0.6,0.3,95.8,0,0,13,���k��,3.2,9
2013/12/10,2:00:00,13,���k��,2.2,0.5,97.6,0.5,0,6,�쓌,5,28
2013/12/10,3:00:00,13,���k��,2.9,0.5,97.8,0,0,7,��쓌,5.4,43
2013/12/10,4:00:00,13,���k��,3.1,0.4,98.6,1.5,0,2,�k��,6.4,16
2013/12/10,5:00:00,13,���k��,3.5,0.2,98.2,1.5,0,13,���k��,7.3,30
2013/12/10,6:00:00,12,��,2.5,0.4,98.3,2,0,14,�k��,5.7,14
2013/12/10,7:00:00,14,�k��,2.4,0.4,98.3,2,0,14,�k��,5.6,44
2013/12/10,8:00:00,13,���k��,3,0.7,99,3.5,0.01,2,�k��,6.6,13
2013/12/10,9:00:00,13,���k��,3,0.9,99.2,3,0.02,3,���k��,6,28
2013/12/10,10:00:00,13,���k��,3.7,1.1,99.2,3.5,0.02,13,���k��,6.3,50
2013/12/10,11:00:00,13,���k��,3.6,1.5,99.3,9,0.02,8,��,7.4,59
2013/12/10,12:00:00,13,���k��,1.2,2.5,99.5,1.5,0.03,14,�k��,7.8,10
2013/12/10,13:00:00,8,��,5.6,9.6,99.3,1.5,0.05,8,��,13.5,50
2013/12/10,14:00:00,8,��,4.1,9.2,95.6,1,0.04,8,��,9.5,41
2013/12/10,15:00:00,7,��쓌,5.2,9.2,95.1,1.5,0.02,7,��쓌,11.5,35
2013/12/10,16:00:00,5,���쓌,3.9,9,98,2.5,0.01,8,��,10.5,16
2013/12/10,17:00:00,2,�k��,2.7,8.5,99,2.5,0,5,���쓌,6.5,2
2013/12/10,18:00:00,14,�k��,3.9,5.6,97.8,4.5,0,3,���k��,8.8,20
2013/12/10,19:00:00,13,���k��,6.5,4.5,98.2,2.5,0,14,�k��,10.5,37
2013/12/10,20:00:00,13,���k��,5.6,5.2,97.5,0,0,14,�k��,10.1,8
2013/12/10,21:00:00,14,�k��,3.9,6.2,97.8,0,0,14,�k��,8.5,14
2013/12/10,22:00:00,12,��,3.1,7.1,96.6,0,0,13,���k��,6.5,37
2013/12/10,23:00:00,12,��,2.3,6.6,95.3,0,0,13,���k��,6.3,20
2013/12/10,0:00:00,14,�k��,1.9,6.7,92,0,0,6,�쓌,3.7,35
2013/12/11,1:00:00,12,��,1.2,5.5,95.9,0,0,11,���쐼,3.5,39
2013/12/11,2:00:00,16,�k,0.7,4.7,98.3,0,0,1,�k�k��,2.3,41
2013/12/11,3:00:00,14,�k��,2.2,5.5,98.8,0,0,14,�k��,3.6,54
2013/12/11,4:00:00,14,�k��,4.6,6.6,78.8,0,0,13,���k��,8.7,59
2013/12/11,5:00:00,13,���k��,5.1,5.8,72.2,0,0,12,��,10,19
2013/12/11,6:00:00,12,��,3.4,4,76.3,0,0,12,��,7.1,17
2013/12/11,7:00:00,15,�k�k��,0.9,3.6,81.8,0,0.01,14,�k��,4.5,6
2013/12/11,8:00:00,13,���k��,1.1,2.4,90.2,0,0.1,14,�k��,2.8,51
2013/12/11,9:00:00,12,��,0.9,7.4,62.1,0,0.25,9,��쐼,2.5,20
2013/12/11,10:00:00,11,���쐼,5.7,7.3,56.1,0,0.38,12,��,12.5,46
2013/12/11,11:00:00,11,���쐼,7.4,6,49.7,0,0.21,11,���쐼,13,55
2013/12/11,12:00:00,11,���쐼,8.8,7.1,45.6,0,0.43,12,��,16.7,22
2013/12/11,13:00:00,11,���쐼,7.4,7,47.2,0,0.53,11,���쐼,14.1,24
2013/12/11,14:00:00,10,�쐼,6,5.6,59.5,0,0.43,11,���쐼,11.3,22
2013/12/11,15:00:00,10,�쐼,2.9,4,63.6,0,0.12,11,���쐼,8.6,27
2013/12/11,16:00:00,9,��쐼,2.5,3.5,60.4,0,0.03,9,��쐼,4.8,12
2013/12/11,17:00:00,8,��,2.1,2.8,61.5,0,0,7,��쓌,3.5,59
2013/12/11,18:00:00,10,�쐼,2.5,2.7,58.2,0,0,9,��쐼,4,59
2013/12/11,19:00:00,6,�쓌,2.3,2.6,54.3,0,0,9,��쐼,4.9,14
2013/12/11,20:00:00,10,�쐼,2.4,2.8,54.1,0,0,6,�쓌,4.5,1
2013/12/11,21:00:00,16,�k,0.9,-1.7,77.9,0,0,13,���k��,4.1,34
2013/12/11,22:00:00,12,��,1.5,-0.8,78.8,0,0,14,�k��,3.1,40
2013/12/11,23:00:00,12,��,1.9,-0.4,79.3,0,0,14,�k��,5.9,32
2013/12/11,0:00:00,12,��,0.9,0.1,79.8,0,0,13,���k��,3.1,13
2013/12/12,1:00:00,6,�쓌,1.1,0.2,80.8,0,0,11,���쐼,3.7,5
2013/12/12,2:00:00,12,��,1.9,-2.3,91.2,0,0,13,���k��,2.5,56
2013/12/12,3:00:00,13,���k��,2.8,-1.2,88.4,0,0,14,�k��,4.2,59
2013/12/12,4:00:00,12,��,2.1,-3.7,93,0,0,15,�k�k��,4.3,10
2013/12/12,5:00:00,12,��,2.5,-2.3,87.5,0,0,16,�k,3.6,45
2013/12/12,6:00:00,12,��,1.3,-4,90.7,0,0,13,���k��,3.9,12
2013/12/12,7:00:00,9,��쐼,1.5,-2.9,90.6,0,0.01,12,��,3.6,30
2013/12/12,8:00:00,12,��,2.3,-2,90.4,0,0.07,12,��,3.4,59
2013/12/12,9:00:00,12,��,2.3,-0.6,84.9,0,0.09,13,���k��,4.5,56
2013/12/12,10:00:00,11,���쐼,0.8,1.3,76.9,0,0.23,13,���k��,4.7,31
2013/12/12,11:00:00,12,��,2.6,5,50.2,0,0.43,11,���쐼,4.5,47
2013/12/12,12:00:00,11,���쐼,7.4,3.9,44.1,0,0.44,11,���쐼,11.7,48
2013/12/12,13:00:00,11,���쐼,5.6,3.7,42.2,0,0.41,10,�쐼,12.5,6
2013/12/12,14:00:00,11,���쐼,5.9,3.4,39.3,0,0.28,11,���쐼,12.5,0
2013/12/12,15:00:00,11,���쐼,6.6,1.4,51.8,0,0.19,12,��,11.6,49
2013/12/12,16:00:00,11,���쐼,3.9,0.2,59.2,0,0.02,11,���쐼,7.7,14
2013/12/12,17:00:00,11,���쐼,5.6,0.3,46.4,0,0,10,�쐼,11.3,39
2013/12/12,18:00:00,11,���쐼,3.3,-0.6,49.3,0,0,12,��,8.2,1
2013/12/12,19:00:00,11,���쐼,6.7,0.1,45.6,0,0,11,���쐼,10.9,51
2013/12/12,20:00:00,11,���쐼,4.7,-0.7,46.3,0,0,12,��,12.3,18
2013/12/12,21:00:00,11,���쐼,6.3,-1,40.6,0,0,11,���쐼,11.1,17
2013/12/12,22:00:00,11,���쐼,3.5,-2.4,45.2,0,0,11,���쐼,9.2,0
2013/12/12,23:00:00,11,���쐼,2.5,-2.3,50.9,0,0,11,���쐼,6.4,23
2013/12/12,0:00:00,10,�쐼,6.4,-1.5,43.6,0,0,11,���쐼,11.2,46
2013/12/13,1:00:00,11,���쐼,6.1,-1.5,44.6,0,0,11,���쐼,11.2,2
2013/12/13,2:00:00,10,�쐼,4.5,-2.3,49.7,0,0,11,���쐼,9.4,8
2013/12/13,3:00:00,10,�쐼,4.3,-3.5,77.8,0,0,10,�쐼,6.8,11
2013/12/13,4:00:00,10,�쐼,3.7,-3.9,82.2,0,0,9,��쐼,6.5,37
2013/12/13,5:00:00,9,��쐼,4.1,-3.2,77.2,0,0,10,�쐼,6.8,16
2013/12/13,6:00:00,10,�쐼,3.2,-2.3,72.1,0,0,10,�쐼,5.9,10
2013/12/13,7:00:00,10,�쐼,2.4,-1.5,70.5,0,0,9,��쐼,4.7,5
2013/12/13,8:00:00,10,�쐼,1.7,-0.8,67.3,0,0.03,10,�쐼,5,12
2013/12/13,9:00:00,9,��쐼,2.2,-0.7,70.9,0,0.07,9,��쐼,5.4,27
2013/12/13,10:00:00,14,�k��,0.4,-1.7,94.3,0,0.08,9,��쐼,2.5,0
2013/12/13,11:00:00,14,�k��,1.2,-2,97,0.5,0.07,14,�k��,2.2,39
2013/12/13,12:00:00,13,���k��,2,-2.4,96.2,0.5,0.08,8,��,4,47
2013/12/13,13:00:00,15,�k�k��,2,-1.9,95.4,0,0.11,11,���쐼,5.3,42
2013/12/13,14:00:00,11,���쐼,3.2,-2,96.2,0,0.06,13,���k��,4.9,41
2013/12/13,15:00:00,13,���k��,3.3,-2.8,97,1,0.04,6,�쓌,6.9,58
2013/12/13,16:00:00,11,���쐼,1.7,-2.5,96,0.5,0.02,14,�k��,6.4,10
2013/12/13,17:00:00,11,���쐼,3.2,-2.8,96.5,0.5,0,8,��,5.1,53
2013/12/13,18:00:00,13,���k��,0.7,-4.3,99.3,0,0,12,��,4.1,2
2013/12/13,19:00:00,10,�쐼,10,1.6,64.8,0.5,0,11,���쐼,18,48
2013/12/13,20:00:00,10,�쐼,8.8,-0.2,73.5,0,0,10,�쐼,18.1,5
2013/12/13,21:00:00,10,�쐼,7.2,-1.2,59.9,0,0,11,���쐼,13.1,49
2013/12/13,22:00:00,11,���쐼,5.2,-2,62,0,0,11,���쐼,9.5,0
2013/12/13,23:00:00,10,�쐼,4.7,-2.2,57.2,0,0,10,�쐼,9.3,36
2013/12/13,0:00:00,10,�쐼,8.7,-2.3,54.3,0,0,10,�쐼,14.5,59
2013/12/14,1:00:00,11,���쐼,5.2,-4,65.5,0,0,10,�쐼,13.9,13
2013/12/14,2:00:00,10,�쐼,4.4,-4,69.4,0,0,10,�쐼,13.7,12
2013/12/14,3:00:00,11,���쐼,4.7,-4.4,60.8,0,0,11,���쐼,9.4,25
2013/12/14,4:00:00,10,�쐼,2.5,-5.5,58.7,0,0,13,���k��,6.1,7
2013/12/14,5:00:00,10,�쐼,4,-4.6,51.5,0,0,8,��,6.1,40
2013/12/14,6:00:00,11,���쐼,1.9,-6.5,55.2,0,0,11,���쐼,7.7,0
2013/12/14,7:00:00,11,���쐼,2.1,-8.9,72.1,0,0.01,11,���쐼,3.3,11
2013/12/14,8:00:00,11,���쐼,3.9,-4.2,43,0,0.1,11,���쐼,7.3,39
2013/12/14,9:00:00,11,���쐼,2.5,-3,33.5,0,0.25,12,��,6,5
2013/12/14,10:00:00,11,���쐼,4.6,-1.8,33.2,0,0.38,12,��,7.7,58
2013/12/14,11:00:00,11,���쐼,5.7,-1.3,32,0,0.47,7,��쓌,10,14
2013/12/14,12:00:00,11,���쐼,7,-1.7,33.7,0,0.49,7,��쓌,10.9,46
2013/12/14,13:00:00,11,���쐼,7.4,-1.7,40.1,0,0.45,10,�쐼,12.8,7
2013/12/14,14:00:00,11,���쐼,3.9,-1.5,34.1,0,0.36,10,�쐼,8.9,2
2013/12/14,15:00:00,10,�쐼,4.2,-1.9,40,0,0.21,10,�쐼,7.5,13
2013/12/14,16:00:00,10,�쐼,3.1,-3.9,43.9,0,0.04,9,��쐼,7.1,2
2013/12/14,17:00:00,4,��,0.3,-8.4,60.5,0,0,10,�쐼,4,1
2013/12/14,18:00:00,10,�쐼,2.3,-12.2,73.4,0,0,11,���쐼,3.1,57
2013/12/14,19:00:00,11,���쐼,1.6,-12.4,76.1,0,0,9,��쐼,3.8,13
2013/12/14,20:00:00,8,��,0.8,-10.4,74.4,0,0,3,���k��,3.1,24
2013/12/14,21:00:00,11,���쐼,1.7,-14.4,80.8,0,0,2,�k��,3.7,34
2013/12/14,22:00:00,6,�쓌,0.4,-13.6,74.6,0,0,10,�쐼,4.1,24
2013/12/14,23:00:00,12,��,1.1,-14,79.9,0,0,11,���쐼,4.1,37
2013/12/14,0:00:00,12,��,2.2,-12.9,81.4,0,0,12,��,2.9,58
2013/12/15,1:00:00,11,���쐼,1.6,-14.4,85.3,0,0,10,�쐼,3.1,47
2013/12/15,2:00:00,11,���쐼,0.7,-13.4,88.3,0,0,12,��,2.4,23
2013/12/15,3:00:00,12,��,1.3,-14.3,92.7,0,0,12,��,1.8,51
2013/12/15,4:00:00,12,��,1,-12.9,95.5,0,0,11,���쐼,2.2,8
2013/12/15,5:00:00,12,��,1.9,-15.1,89.4,0,0,6,�쓌,23.6,10
2013/12/15,6:00:00,12,��,1.5,-14.8,90.6,0,0.01,12,��,2.3,25
2013/12/15,7:00:00,11,���쐼,2.5,-13.2,89.8,0,0.01,6,�쓌,3.1,59
2013/12/15,8:00:00,10,�쐼,3.7,-2.4,56.9,0,0.1,9,��쐼,5.5,57
2013/12/15,9:00:00,11,���쐼,2.7,-1.6,56.4,0,0.12,2,�k��,7.7,34
2013/12/15,10:00:00,11,���쐼,4.1,0.2,50.6,0,0.15,12,��,6.1,36
2013/12/15,11:00:00,11,���쐼,2.9,0.2,54.2,0,0.2,11,���쐼,7.6,5
2013/12/15,12:00:00,11,���쐼,4.4,0.9,49.4,0,0.21,11,���쐼,8.1,25
2013/12/15,13:00:00,10,�쐼,3.2,1.3,47.9,0,0.29,11,���쐼,7.5,1
2013/12/15,14:00:00,10,�쐼,4.5,2.9,37.1,0,0.37,7,��쓌,7.4,46
2013/12/15,15:00:00,11,���쐼,2,0.6,46.2,0,0.22,5,���쓌,6,1
2013/12/15,16:00:00,10,�쐼,1.2,-3.1,65.5,0,0.03,10,�쐼,2.8,3
2013/12/15,17:00:00,4,��,0.4,-3.5,65,0,0,3,���k��,2.5,53
2013/12/15,18:00:00,10,�쐼,0.6,-7.1,73.2,0,0,9,��쐼,2.7,51
2013/12/15,19:00:00,11,���쐼,1.8,-3.3,72.1,0,0,12,��,4.2,28
2013/12/15,20:00:00,12,��,0.6,-2.8,80.9,0,0,13,���k��,5.9,42
2013/12/15,21:00:00,11,���쐼,1.5,-0.4,71.5,0,0,10,�쐼,3.3,58
2013/12/15,22:00:00,11,���쐼,6.2,3,62.5,0,0,11,���쐼,9.1,56
2013/12/15,23:00:00,11,���쐼,4.3,2.3,65.8,0,0,12,��,8.1,9
2013/12/15,0:00:00,11,���쐼,4.6,2.7,67,0,0,10,�쐼,8.5,23
2013/12/16,1:00:00,14,�k��,2.4,2.9,65,0,0,10,�쐼,10.1,12
2013/12/16,2:00:00,15,�k�k��,3.5,1.6,80.8,0,0,16,�k,10.6,36
2013/12/16,3:00:00,13,���k��,4.4,1.5,77.2,0,0,7,��쓌,8.2,52
2013/12/16,4:00:00,14,�k��,3.9,1.2,72.8,0,0,10,�쐼,8.8,40
2013/12/16,5:00:00,15,�k�k��,3.5,1,64.9,0,0,14,�k��,7.9,41
2013/12/16,6:00:00,15,�k�k��,4.6,1.6,61,0,0,15,�k�k��,9.8,23
2013/12/16,7:00:00,14,�k��,5.9,1.6,60.8,0,0.01,15,�k�k��,14.1,50
2013/12/16,8:00:00,14,�k��,5.4,1.8,57.2,0,0.1,14,�k��,13.1,20
2013/12/16,9:00:00,14,�k��,4.5,2.3,49.6,0,0.18,13,���k��,11,0
2013/12/16,10:00:00,14,�k��,5.6,3.7,49.9,0,0.3,10,�쐼,9.1,54
2013/12/16,11:00:00,14,�k��,4.9,4.6,47.6,0,0.37,14,�k��,8.9,57
2013/12/16,12:00:00,14,�k��,4.3,5,48.4,0,0.49,14,�k��,10.5,32
2013/12/16,13:00:00,15,�k�k��,4.6,5.1,51,0,0.42,15,�k�k��,10.4,5
2013/12/16,14:00:00,15,�k�k��,4.7,5.1,52.1,0,0.35,14,�k��,11.2,21
2013/12/16,15:00:00,14,�k��,3.8,4.6,54.9,0,0.23,14,�k��,8.8,41
2013/12/16,16:00:00,14,�k��,3.4,3.6,61.7,0,0.06,10,�쐼,8.3,6
2013/12/16,17:00:00,15,�k�k��,3.4,3.5,61.4,0,0,16,�k,7.2,55
2013/12/16,18:00:00,16,�k,4.1,2.7,67.1,0,0,15,�k�k��,7.6,58
2013/12/16,19:00:00,1,�k�k��,3.7,1.7,70.3,0,0,16,�k,7.9,12
2013/12/16,20:00:00,13,���k��,2.1,-0.1,77.6,0,0,1,�k�k��,4.8,0
2013/12/16,21:00:00,14,�k��,1.4,-3,77.1,0,0,15,�k�k��,4.9,24
2013/12/16,22:00:00,11,���쐼,2.7,-2.9,81.7,0,0,12,��,4.3,37
2013/12/16,23:00:00,12,��,2.8,-1.1,80.8,0,0,5,���쓌,4.7,18
2013/12/16,0:00:00,13,���k��,2.7,-0.9,78.3,0,0,10,�쐼,5.2,27
2013/12/17,1:00:00,13,���k��,3.6,-0.8,77.9,0,0,13,���k��,6,55
2013/12/17,2:00:00,13,���k��,2.8,-1,74.7,0,0,14,�k��,6.3,0
2013/12/17,3:00:00,13,���k��,3.7,-1.2,68.5,0,0,15,�k�k��,6.4,42
2013/12/17,4:00:00,11,���쐼,3.9,-1.1,63.9,0,0,14,�k��,6.2,49
2013/12/17,5:00:00,11,���쐼,3.9,-1.5,66.8,0,0,13,���k��,7.1,18
2013/12/17,6:00:00,10,�쐼,2.7,-1.8,72.8,0,0,13,���k��,5.3,0
2013/12/17,7:00:00,12,��,4.6,-1.1,69.8,0,0.01,7,��쓌,7,37
2013/12/17,8:00:00,13,���k��,4.4,-0.1,60.9,0,0.06,10,�쐼,8.4,30
2013/12/17,9:00:00,13,���k��,2.5,0.3,60.6,0,0.16,5,���쓌,6.1,7
2013/12/17,10:00:00,14,�k��,2.6,3.6,52.1,0,0.32,13,���k��,4.6,49
2013/12/17,11:00:00,13,���k��,3.8,4.8,47.6,0,0.46,3,���k��,7,51
2013/12/17,12:00:00,13,���k��,3.6,5.1,50.6,0,0.48,13,���k��,7.7,21
2013/12/17,13:00:00,12,��,4.3,5.2,52.9,0,0.46,11,���쐼,8.2,31
2013/12/17,14:00:00,16,�k,3.9,5,57.4,0,0.19,16,�k,7.2,44
2013/12/17,15:00:00,14,�k��,1.6,4.4,60.8,0,0.12,14,�k��,5.6,0